MIDAS 4 DEB, 42664

Orbit data source: Space-Track

MIDAS 4 DEB, 42664 is space debris in LEO originally from a launch on Sat, 21 Oct 1961 UTC launched from the Air Force Western Test Range (AFWTR). Debris objects in space refer to the collection of defunct objects orbiting the Earth. Examples of debris include non-operational satellites, rocket bodies, and fragments generated from explosions, collisions, or faulty payload assembly.

Loading next visibility...
Identifier
42664, 1961-028K
Orbit
LEO
Country
Flag of USUS
Related business
Manufacturer
Unknown
Mission
Spacecraft
Bus & Motor
Unknown
Mass
Unknown
Launch date (UTC)
1961-10-21 (64 years ago)
Launch vehicle
Unknown
Launch site
Air Force Western Test Range (AFWTR)
Object type
Payload
Rocket body
Debris
Shape & HBR
Unknown
Radar Cross Section
Medium (>0.1 m² and <1 m²)

Expand to show TLE details & history
Last TLE update: 1 month ago

TLE from 1 month ago
0 MIDAS 4 DEB
1 42664U 61028K   25207.28853254  .00000004  00000-0  29512-2 0  9997
2 42664  95.8256 168.3405 0344171 185.2262 174.4948  8.69044360322141
Epoch: 2025-07-26T06:55Z
TLE epoch observation values (Epoch: 2025-07-26T06:55:29.211Z)
Latitude
-0.00003°
Longitude
120.24147°
Altitude
3,959.776 km
Speed
6.103 km/s
True Right ascension
11h 13m 21s
True Declination
0° 00' 00"
Sunlit
Object was in daylight at epoch
Visualization orbit readout
Latitude
Unknown
Longitude
Unknown
Altitude
Unknown
Speed
Unknown
Apparent Right ascension
Unknown
Apparent Declination
Unknown
Sunlit
N/A
Visualization observer readout
Local Sidereal Time
23:28:42
Azimuth
Unknown
Elevation
Unknown
Doppler factor
Unknown
Orbital elements
Apogee altitude
3,956.856 km
Perigee altitude
3,269.125 km
Semi-major axis
9,991.128 km
Eccentricity
0.03442
Inclination
95.8256°
RAAN
168.3405°
Arg. of periapsis
185.2262°
True anomaly
174.8576°
Mean anomaly
174.4948°
Eccentric anomaly
174.67771°
Mean motion
2.17331 °/min
Orbital period
165.65 mins
BSTAR
0.0029512
Loading maneuver chart data...
Computing Atmospheric mass density...
Loading historical data...
Loading historical data...
Loading historical data...
Loading historical data...
Loading historical data...
Loading historical data...
Loading historical data...

Documentation

Showing up to 5 results
|